Hourly Data Report for September 16, 2017

All times are specified in Local Standard Time (LST). Add 1 hour to adjust for Daylight Saving Time where and when it is observed.

WOODSTOCK NEWBRIDGE
NEW BRUNSWICK

46°09'08.000" N
67°32'34.000" W
154.00 m
8105603
71606
EWD

Download Data

Hourly Data (September 2017)
Hourly Data Report for September 16, 2017
Temp Definition
°C
Dew Point Temp Definition
°C
Rel Hum Definition
%
Wind Dir Definition
10's deg

Wind Spd Definition
km/h
Visibility Definition
km
Stn Press Definition
kPa
Hmdx Definition


Wind Chill Definition


Weather Definition


TIME
00:00 10.4 9.3 93   0   100.23     LegendNANA
01:00 10.3 9.8 97   0   100.24     LegendNANA
02:00 10.1 9.6 97   0   100.21     LegendNANA
03:00 12.0 11.8 99 0 1   100.24     LegendNANA
04:00 14.7 14.5 99 0 1   100.22     LegendNANA
05:00 15.1 14.9 99 21 1   100.21     LegendNANA
06:00 14.9 14.7 99 21 2   100.21     LegendNANA
07:00 14.9 14.7 99 21 2   100.28     LegendNANA
08:00 15.1 14.9 99 19 4   100.30     LegendNANA
09:00 15.5 15.2 98 18 3   100.31     LegendNANA
10:00 18.5 15.9 85 19 3   100.26     LegendNANA
11:00 20.9 15.6 72 20 5   100.21 25   LegendNANA
12:00 24.2 17.3 66 19 6   100.19 30   LegendNANA
13:00 25.4 15.4 54 24 10   100.16 30   LegendNANA
14:00 26.1 16.3 55 23 4   100.13 31   LegendNANA
15:00 27.4 14.9 47 27 10   100.13 31   LegendNANA
16:00 27.1 16.0 51 29 4   100.14 32   LegendNANA
17:00 25.6 16.4 57 33 4   100.13 30   LegendNANA
18:00 24.1 17.0 65 36 3   100.19 29   LegendNANA
19:00 21.9 16.3 71 36 7   100.23 27   LegendNANA
20:00 20.9 16.1 74 34 3   100.32 26   LegendNANA
21:00 20.0 15.7 76 34 4   100.32     LegendNANA
22:00 18.4 15.4 83 0 1   100.38     LegendNANA
23:00 18.4 14.6 79 7 5   100.39     LegendNANA

Notes on Data Quality.

Legend

  • E = Estimated
  • M = Missing
  • NA = Not Available
  • ‡ = Partner data that is not subject to review by the National Climate Archives
Date modified: